Cloud_Cover
90 76 93 88 94 56 100 96 36 35 74 16 38 12 35 100 12 58 100 100 84 69 94 90 100 100 100 100 100 100 100 100 100 100 100 97 100 100 100 100 100 100 100 100 100 100 66 96 100 100 100 100 100 100
97 56 65 79 78 98 27 22 31 15 7 31 55 75 100 100 100 82 58 98 32 100 100 94 100 100 100 100 100 100 100 100 100 100 100 100 100 100 100 100 100 100 100 100 100 100 100 100 100 100 100 100 100 100
12 12 49 87 32 54 22 23 23 21 40 87 100 100 32 100 96 41 75 32 35 100 100 74 100 100 100 100 100 100 100 100 100 100 100 100 100 100 100 100 100 100 100 100 100 100 100 100 100 100 100 100 100 100
5 87 91 90 24 96 96 86 41 72 81 100 100 82 39 100 100 6 68 34 48 100 100 100 100 100 100 100 100 100 100 100 100 100 100 100 100 100 100 100 100 100 100 100 100 100 100 100 100 100 100 100 100 100
70 100 76 45 82 99 99 51 11 48 45 49 15 37 5 14 24 26 5 5 49 100 99 100 100 100 100 100 100 100 100 100 100 100 100 100 100 100 100 100 100 100 100 100 100 100 100 100 100 100 100 100 100 100
72 81 95 80 96 100 100 6 81 5 5 10 6 9 78 5 29 99 56 100 100 100 100 100 100 100 100 100 100 100 100 100 100 100 100 100 100 100 100 100 100 100 100 100 100 100 100 100 100 100 100 100 100 100
77 66 96 100 100 100 100 41 5 9 5 5 28 6 5 5 20 99 38 100 100 100 100 100 100 100 100 100 100 100 100 100 100 100 100 100 100 100 100 100 100 100 100 100 100 100 100 100 100 100 100 100 100 100
5 46 100 100 65 100 100 12 54 5 5 14 5 5 5 11 90 100 100 100 100 100 100 100 100 100 100 100 100 100 100 100 100 100 100 100 100 100 100 100 100 100 100 100 100 100 100 100 100 100 100 100 100 100
5 5 5 30 100 100 77 5 5 4 5 5 5 5 64 83 92 100 100 100 100 100 100 100 100 100 100 100 100 100 100 100 100 100 100 100 100 100 100 100 100 100 100 100 100 100 100 100 100 100 100 100 100 100
5 5 5 100 77 5 4 5 76 5 5 0 4 5 72 100 100 100 100 100 100 100 100 100 100 100 100 100 100 100 100 100 100 100 100 100 100 100 100 100 100 100 100 100 100 100 100 100 100 100 100 100 100 100
10 47 87 5 5 5 5 77 87 9 0 6 69 100 100 100 100 100 100 100 100 100 100 100 100 100 100 100 100 100 100 100 100 100 100 100 100 100 100 100 100 100 100 100 100 100 100 100 100 100 100 100 100 100
5 5 3 5 5 13 76 77 46 15 46 92 100 100 100 100 100 100 100 100 100 100 100 100 100 100 100 100 100 100 100 100 100 100 100 100 100 100 100 100 100 100 100 100 100 100 100 100 100 100 100 100 100 99
3 5 5 5 5 5 5 6 14 7 95 100 100 100 100 100 100 100 100 100 100 100 100 100 100 100 100 100 100 100 100 100 100 100 100 100 100 100 100 100 100 100 100 100 100 100 100 100 100 100 100 100 96 94
2 4 3 5 5 5 5 5 5 46 100 100 100 100 100 100 100 100 100 100 100 100 100 100 100 100 100 100 100 100 100 100 100 100 100 100 100 100 100 100 100 100 100 100 100 100 100 100 100 98 95 69 11 5
4 1 2 1 5 5 5 5 25 100 100 100 72 100 100 100 100 100 100 100 100 100 100 100 100 100 100 100 100 100 100 100 100 100 100 100 100 100 100 100 100 100 100 100 100 100 99 69 36 15 5 5 5 5
0 0 1 5 5 5 5 4 55 100 100 100 100 100 100 100 100 100 100 100 100 100 100 100 100 100 100 100 100 100 100 100 100 100 100 100 100 100 100 100 100 100 100 100 100 88 45 7 5 5 5 5 5 61
2 5 5 5 5 4 2 4 8 100 100 100 100 100 100 100 100 100 100 100 100 100 100 100 100 100 100 100 100 100 100 100 100 100 100 100 100 100 100 100 100 100 98 91 7 5 5 5 5 5 5 48 27 6
13 5 5 5 5 2 5 5 5 65 100 100 100 100 100 100 100 100 100 100 100 100 100 100 100 100 100 100 100 100 100 100 100 100 100 100 100 100 100 99 92 89 22 5 5 5 5 5 5 20 78 22 8 17
5 5 5 5 4 5 5 5 5 47 94 98 100 100 100 100 100 100 100 100 100 100 100 100 100 100 100 100 100 100 100 100 100 100 91 91 95 79 35 8 5 5 5 5 5 19 42 34 40 65 93 80 100 98
5 5 5 5 1 5 5 25 5 6 99 100 98 100 100 100 100 100 100 100 100 100 100 100 100 100 100 100 100 100 100 100 74 38 6 5 5 5 5 5 5 5 5 5 5 62 80 26 48 95 97 100 100 100
4 3 4 5 5 5 27 84 54 96 70 90 99 91 100 100 100 100 100 100 100 100 100 100 100 100 100 100 97 92 100 90 20 5 5 4 5 5 5 5 5 5 5 5 54 41 87 100 100 100 100 100 100 98
5 4 5 4 5 8 28 84 87 29 55 76 75 97 100 100 100 100 100 100 100 100 100 100 100 100 100 100 100 100 69 6 5 5 5 4 5 10 5 5 21 53 67 97 100 100 100 100 99 100 100 99 94 74
2 1 5 5 1 4 8 14 9 34 23 33 5 7 55 100 100 100 100 100 100 100 100 100 100 100 98 98 70 38 5 5 5 6 6 5 5 5 5 5 9 73 92 93 100 100 100 100 84 100 92 98 99 99
1 5 9 12 14 30 8 22 7 16 17 22 46 33 65 91 91 100 100 100 100 100 100 100 100 100 98 88 42 92 95 34 12 15 38 9 5 5 5 5 5 15 70 100 100 100 100 100 90 92 100 100 100 100
4 6 23 47 5 7 28 9 20 8 82 98 65 100 48 50 68 86 100 100 100 100 100 100 100 100 100 94 99 71 99 100 92 20 14 51 6 5 6 21 92 75 95 100 100 100 100 100 100 100 100 100 100 100
99 90 64 96 57 33 93 29 96 94 80 61 84 94 90 86 63 82 97 100 100 100 100 100 100 96 31 94 99 83 97 99 86 5 5 5 20 85 97 100 100 100 100 100 100 100 100 100 100 100 100 100 100 100
46 65 82 78 91 95 43 69 83 31 96 78 92 83 96 91 99 96 100 100 99 99 100 97 97 87 68 35 5 5 6 58 70 8 14 73 91 94 100 100 100 100 100 100 100 100 100 100 100 100 100 100 100 98
72 79 98 60 78 70 59 93 90 100 99 100 76 80 58 93 86 100 100 100 100 98 96 94 76 34 35 44 36 21 13 7 54 97 100 100 100 100 100 100 100 100 100 100 100 100 100 100 100 100 100 100 99 85
96 64 88 98 89 100 96 94 99 100 100 100 99 88 95 99 99 89 89 98 96 98 100 94 95 80 83 99 83 76 100 100 100 100 100 100 100 100 100 100 100 100 100 100 100 100 100 100 100 100 100 100 91 90
100 99 97 100 100 100 99 99 96 97 95 91 100 77 94 97 100 92 86 96 100 100 98 89 79 74 87 100 100 100 100 100 100 100 100 100 100 100 100 100 100 100 100 100 100 100 100 100 100 100 100 97 84 78
100 100 99 100 100 100 89 99 96 96 62 54 69 81 86 91 97 96 82 83 91 93 82 80 100 100 100 100 100 100 100 100 100 100 100 100 100 100 100 100 100 100 100 100 100 100 100 100 100 92 83 75 72 85
100 100 100 100 100 96 97 84 89 82 75 57 75 73 78 69 100 86 73 73 76 74 100 100 100 100 100 100 100 100 100 100 100 100 100 100 100 100 100 100 100 100 100 100 100 100 100 100 98 92 93 75 65 63
100 100 100 100 93 96 79 81 73 75 80 84 94 90 89 85 74 80 73 80 99 100 100 100 100 100 100 100 100 100 100 100 100 100 100 100 100 100 100 100 100 100 100 100 100 100 100 100 98 83 80 69 67 66